Other Public Products
Issued by NWS Grand Forks, ND

Home | Current Version | Previous Version | Text Only | Print | Product List | Glossary Off
Versions: 1 2 3 4 5 6 7 8 9 10 11 12 13 14 15 16 17 18 19 20 21 22 23 24 25 26 27 28 29 30 31 32 33 34 35 36 37 38 39 40 41 42 43 44 45 46 47 48 49 50

000
FPUS83 KFGF 090231
OPUFGF
PRAIRIE TO PINES WEATHER ROUNDUP
NATIONAL WEATHER SERVICE EASTERN NORTH DAKOTA/GRAND FORKS ND
800 PM CST MON FEB 08 2016

 **SATELLITE DATA USED TO AUGMENT SKY COVER AT AUTOMATED STATIONS**
 *****  WEATHER ACROSS EASTERN NORTH DAKOTA  *****

CITY           SKY/WX    TMP DP  RH WIND       PRES   REMARKS
GRAND FORKS    MOCLDY    10   2  69 N21       30.25F WCI  -9
GRAND FORKS AF CLOUDY    10   1  67 N18       30.26R WCI  -8
GRAND CITY NWS NOT AVBL
BUXTON           N/A     -3   4 100 NW20        N/A  WCI -25
DEVILS LAKE    CLEAR     10   7  87 N9        30.25R WCI  -3
FARGO          PTCLDY    10   3  73 N23       30.22S WCI -10
WAHPETON ARPT  CLOUDY    10   3  72 N24G32    30.19S WCI -10
$$

 *****  WEATHER ACROSS CENTRAL AND WESTERN NORTH DAKOTA  *****

CITY           SKY/WX    TMP DP  RH WIND       PRES   REMARKS
JAMESTOWN      CLEAR     16  10  77 N12       30.21R WCI   3
BISMARCK       CLOUDY    31  17  56 NW13      30.26R WCI  21
MINOT          PTCLDY    20  12  71 NW8       30.26F WCI  10
MINOT AFB      PTCLDY    18  15  88 CALM      30.26F
GARRISON         N/A     22  16  78 N9        30.25F WCI  12
WILLISTON      CLOUDY    32  21  64 NE6       30.28F
DICKINSON      CLOUDY    30  15  53 NW8       30.23F WCI  22
HETTINGER      CLOUDY    32  12  43 N8        30.25S WCI  25
$$

 *****  OTHER OBSERVATIONS NORTHEAST NORTH DAKOTA  *****

CITY           SKY/WX    TMP DP  RH WIND       PRES   REMARKS
WALHALLA       FAIR       5   5 100 NW8       30.30R WCI  -8
LANGDON        FAIR       7   1  78 N13       30.23R WCI  -9
CAVALIER       FAIR       7   1  78 N13       30.29R WCI  -9
GRAFTON        FAIR       7   1  78 NW12G17   30.30R WCI  -9
CANDO          FAIR      10   7  85 NW7       30.27S WCI   0
FORT TOTTEN      N/A     13   8  81 N3        29.95
ROLLA          FAIR      14   7  73 N14       30.23F WCI  -1
RUGBY          FAIR      18   9  68 N13       30.26S WCI   4
 ***** THE ABOVE OBSERVATIONS ARE NON NWS ARE NOT QUALITY
        CONTROLLED AND MAY MIS-REPORT RAIN FOR SNOW...
$$

 *****  OTHER OBSERVATIONS SOUTHEAST NORTH DAKOTA *****

CITY           SKY/WX    TMP DP  RH WIND       PRES   REMARKS
COOPERSTOWN    NOT AVBL
VALLEY CITY    FAIR      12   9  85 N15       30.23S WCI  -4
OAKES          FAIR      16  12  86 N15       30.20R WCI   1
GWINNER        MOCLDY    16  12  86 N16       30.21R WCI   0
SHEYENNE NWR     N/A     10   4  77 N12       29.95  WCI  -5
BUFFALO          N/A      8   3  79 N13         N/A  WCI  -8
WYNDMERE         N/A     10   7  85 N21         N/A  WCI  -9
 ***** THE ABOVE OBSERVATIONS ARE NON NWS ARE NOT QUALITY
       CONTROLLED AND MAY MIS-REPORT RAIN FOR SNOW...
$$

  *****  WEATHER ACROSS NORTHERN MINNESOTA  *****

CITY           SKY/WX    TMP DP  RH WIND       PRES   REMARKS
FLAG ISLAND    CLOUDY     3  -2  78 N16       30.14R WCI -16
WARROAD        CLOUDY     7   0  72 NW10      30.16R WCI  -8
ROSEAU         CLEAR      7   0  72 NW13      30.18R WCI  -9
HALLOCK        CLEAR      9   3  78 N15       30.25R WCI  -8
THF RVR FALLS  NOT AVBL
HALSTAD          N/A      8   5  89 N25         N/A  WCI -14
FOSSTON        CLOUDY     7   1  78 N22       30.13S FOG     WCI -14
BAUDETTE       CLOUDY     5  -2  72 N18G25    30.09S WCI -15
WASKISH        CLOUDY     7   1  78 NW16G22   30.09F WCI -11
CROOKSTON      CLEAR      9   3  78 N22       30.22S WCI -11
$$
  *****  WEATHER ACROSS CENTRAL AND WEST MINNESOTA  *****

CITY           SKY/WX    TMP DP  RH WIND       PRES   REMARKS
BEMIDJI        CLOUDY     7   1  75 NW16G22   30.06S WCI -11
PARK RAPIDS    CLOUDY     9   1  70 N21       30.04S WCI -11
WADENA         CLOUDY     7   1  78 NW16G28   30.05S WCI -11
DETROIT LAKES  LGT SNOW  10   5  79 N24G30    30.12S WCI -10
MOORHEAD       PTCLDY     9   3  78 NW23      30.20F WCI -12
FERGUS FALLS   CLOUDY     9   3  78 N23G35    30.16F WCI -12
ELBOW LAKE     CLOUDY     8   1  74 NW17G25   30.11F WCI -10
MORRIS MN      MOCLDY    10   1  67 N30G38    30.10F WCI -12
STAPLES        CLOUDY     9   1  72 N16G24    30.04R WCI  -9
WHEATON        FLURRIES  12   9  85 N21G28    30.20S WCI  -6
$$
  *****  WEATHER ELSEWHERE ACROSS MINNESOTA  *****

CITY           SKY/WX    TMP DP  RH WIND       PRES   REMARKS
DULUTH         LGT SNOW   6  -1  73 NW22G33   29.88F BLWGSNOWWCI -15
INTRNTL FALLS  CLOUDY     4  -3  73 NW17      30.05S WCI -16
ELY            FLURRIES   3   0  85 NW8G18    29.92S WCI -10
CLOQUET        CLOUDY     7   0  72 NW21G30   29.92F HAZE    WCI -13
BRAINERD       MIX PCPN   9   1  70 N23G31    30.01S WCI -11
HIBBING        FLURRIES   3  -2  79 NW17G28   29.96S WCI -17
ALEXANDRIA     CLOUDY     9   1  70 N21G35    30.05F WCI -11
SAINT CLOUD    CLOUDY    12   2  64 N18G29    30.00S WCI  -6
MINNEAPOLIS    LGT SNOW  14   7  73 NW20G28   29.97S WCI  -3
$$

  *****  WEATHER ACROSS SOUTH DAKOTA  *****

CITY           SKY/WX    TMP DP  RH WIND       PRES   REMARKS
SIOUX FALLS    PTCLDY    21  13  71 N17       30.11R WCI   7
BROOKINGS      CLOUDY    16  10  77 N14       30.09F WCI   2
WATERTOWN      CLEAR     15   8  73 N20       30.09F WCI  -2
HURON          CLEAR     23  14  68 N12       30.17S WCI  12
SISSETON         N/A     11   8  88 N17       30.17S WCI  -6
ABERDEEN       CLEAR     23  11  60 N12       30.20F WCI  12
MITCHELL       PTCLDY    27  17  66 N12       30.17F WCI  17
PIERRE         CLOUDY    32  17  54 N12       30.21F WCI  23
MOBRIDGE       CLOUDY    33  19  56 NW14      30.19S WCI  23
RAPID CITY     CLOUDY    35  16  45 NW5       30.23F
$$

  *****  SOME WEATHER IN NEARBY STATES *****

CITY           SKY/WX    TMP DP  RH WIND       PRES   REMARKS
GLASGOW MT     PTCLDY    30  22  72 E8        30.25F WCI  22
GREAT FALLS MT CLEAR     41  28  60 SW10      30.33F
CHEYENNE WY    PTCLDY    37  23  56 NW18G28   30.32S
SCOTTSBLUFF NE MOCLDY    38  29  70 NW12      30.29F
OMAHA NE       CLOUDY    25  18  74 N8        30.10S WCI  16
DES MOINES IA  FLURRIES  20  10  65 N20G31    30.00F WCI   4
DAVENPORT IA   CLOUDY    17   9  70 NW21G30   29.87F WCI   0
CHICAGO IL     CLOUDY    25  18  74 NW16      29.74S WCI  12
EAU CLAIRE WI  LGT SNOW  12   6  77 NW10      29.89S WCI  -1
LA CROSSE WI   LGT SNOW  15  10  80 NW12      29.90S WCI   2
$$

  *****  SOME NATIONAL WEATHER *****

CITY           SKY/WX    TMP DP  RH WIND       PRES   REMARKS
LA GUARDIA NY  FLURRIES  29  23  78 NE9       29.80R WCI  20
RALEIGH NC     CLOUDY    39  37  93 S3        29.68S
ATLANTA GA     MOCLDY    43  23  45 NW15G28   29.81R
NEW ORLEANS LA CLEAR     50  18  28 NW14      30.10R
OKLAHOMA CITY  PTCLDY    40  11  30 N18       30.25R
ALBUQUERQUE NM PTCLDY    50  21  32 N8        30.35R
SALT LAKE CITY MOCLDY    34  27  75 W5        30.63R
LOS ANGELES CA CLEAR     73  34  23 W7        30.08R
BOISE ID       CLEAR     40  32  73 CALM      30.64R
SEATTLE WA     PTCLDY    52  43  71 N10       30.33F
$$

*** WEATHER ACROSS MANITOBA...SASKATCHEWAN AND ONTARIO ***
                ***ONTARIO***

CITY           SKY/WX    TMP DP  RH WIND       PRES   REMARKS
GERALDTON      LGT SNOW   0  -6  78 N10       29.83R DRFTSNOWWCI -17
THUNDER BAY    LGT SNOW   7   0  72 N12       29.89R DRFTSNOWWCI  -9
SIOUX LOOKOUT  FLURRIES   3  -2  78 NW13G18   30.00S WCI -14
TORONTO        SNOWSHWR  32  27  80 E13G22    29.58F WCI  22
BIG TROUT LK   FLURRIES  -6 -11  77 NW6       30.09S WCI -18
PICKLE LAKE    PTCLDY    -2 -11  65 N8        29.98R WCI -17
DRYDEN         FLURRIES   1  -4  78 NW13G20   30.03S WCI -16
KENORA         FLURRIES   1  -4  78 N13       30.09F WCI -16
$$
                *** MANITOBA***

CITY           SKY/WX    TMP DP  RH WIND       PRES   REMARKS
BRANDON        CLEAR      9   3  78 NW13      30.27F WCI  -7
DAUPHIN        CLOUDY    14   9  79 W6        30.30S WCI   5
ISLAND LAKE    FLURRIES  -6  -9  84 NW8       30.22  WCI -21
PILOT MOUND      N/A      5   1  85 N6          N/A  WCI  -6
THE PAS        FLURRIES   9   1  72 N6        30.32S WCI  -1
THOMPSON       CLEAR    -11 -17  77 N6        30.32R WCI -25
WINNIPEG       CLEAR      0  -6  78 NW10      30.28R WCI -17
LYNN LAKE      CLEAR    -17 -20  83 W6        30.34R WCI -31
CHURCHILL      CRYSTALS -18 -26  69 N20G26    30.35R BLWGSNOWWCI -46
GILLAM         CLEAR    -17 -24  70 NW10      30.30  WCI -37
$$
                ***SASKATCHEWAN***

CITY           SKY/WX    TMP DP  RH WIND       PRES   REMARKS
ESTEVAN        CLOUDY    25  21  86 CALM      30.26F
KINDERSLEY     PTCLDY    28  25  86 N6        30.24R WCI  22
LLOYDMINSTER   MOCLDY    28  25  86 SW9       30.21F WCI  20
PRINCE ALBERT  MOCLDY    25  19  80 SW2       30.23S
REGINA         NOT AVBL
YORKTON        CLOUDY    21  12  68 SW5       30.24F WCC1F1C2F2C3F3C4F4C5F5C6F6C7F7C8F8C9F9CaFaCbFbCcFcCdFdCe!


USA.gov is the U.S. government's official web portal to all federal, state and local government web resources and services.